Flag for Belgium Weather past 2 weeks in Leuven, Belgium

Now
54 °F

Passing clouds.


Feels Like: 53 °F
Forecast: 49 / 60 °F
Wind: 5 mph from Southwest

Location: Brussels National Airport

Current Time: Oct 26, 2014 at 12:11:22 AM

Latest Report: Oct 25, 2014 at 11:20 PM


Visibility: N/A

Pressure: 30.21 "Hg

Humidity: 82%

Dew point: 48 °F

Location of LeuvenLocation

Historic Weather in Leuven — Graph

°F

Leuven temperature yesterday

Maximum temperature yesterday: 57 °F (at 2:20 PM)
Minimum temperature yesterday: 52 °F (at 12:20 AM)
Average temperature yesterday: 54 °F

Past Weeks' High & Low Weather Summary

 TemperatureHumidityPressure
High73 °F (Oct 18, 2:20 PM)94% (Oct 11, 2:20 AM)30.24 "Hg (Oct 11, 2:20 AM)
Low46 °F (Oct 21, 5:20 PM)57% (Oct 18, 5:20 PM)29.56 "Hg (Oct 21, 1:20 PM)
Average56 °F82%29.92 "Hg
* Reported Oct 10 10:20 PM — Oct 25 10:50 PM, Leuven, Weather by CustomWeather, © 2014

Note: Actual official high and low records may vary slightly from our data, if they occured in-between our weather recording intervals... More about our weather records

Advertising

Leuven weather history for previous 24 hours

 ConditionsComfort  
Time TempWeatherWind HumidityBarometerVisibility
10:50 PM
Oct 25
54 °FPassing clouds.6 mph82%30.18 "HgN/A
10:20 PM54 °FPassing clouds.3 mph82%30.18 "HgN/A
9:50 PM52 °FPassing clouds.5 mph88%30.18 "HgN/A
9:20 PM52 °FPartly cloudy.5 mph88%30.18 "HgN/A
8:50 PM52 °FPassing clouds.5 mph88%30.18 "HgN/A
8:20 PM52 °FPassing clouds.5 mph82%30.18 "HgN/A
7:50 PM54 °FPassing clouds.5 mph77%30.15 "HgN/A
7:20 PM54 °FPartly sunny.2 mph82%30.15 "HgN/A
6:50 PM54 °FPartly sunny.3 mph77%30.15 "HgN/A
6:20 PM54 °FPartly sunny.3 mph72%30.15 "HgN/A
5:50 PM55 °FPartly sunny.6 mph67%30.15 "HgN/A
5:20 PM55 °FPartly sunny.7 mph72%30.15 "HgN/A
4:50 PM57 °FScattered clouds.9 mph72%30.12 "HgN/A
4:20 PM57 °FScattered clouds.10 mph72%30.12 "HgN/A
3:50 PM57 °FPartly sunny.10 mph77%30.12 "HgN/A
3:20 PM57 °FBroken clouds.8 mph88%30.12 "HgN/A
2:50 PM57 °FBroken clouds.8 mph82%30.09 "HgN/A
2:20 PM57 °FPartly sunny.9 mph88%30.09 "HgN/A
1:50 PM55 °FPartly sunny.7 mph94%30.09 "Hg4 mi
1:20 PM55 °FDrizzle. Broken clouds.8 mph88%30.12 "Hg4 mi
12:50 PM55 °FDrizzle. Partly sunny.9 mph88%30.09 "Hg2 mi
12:20 PM55 °FDrizzle. Partly sunny.9 mph94%30.09 "Hg3 mi
11:50 AM55 °FDrizzle. Broken clouds.7 mph88%30.09 "Hg2 mi
11:20 AM55 °FFog.9 mph88%30.09 "Hg3 mi
10:50 AM55 °FFog.9 mph88%30.09 "Hg3 mi
10:20 AM54 °FFog.6 mph94%30.07 "Hg3 mi
9:50 AM54 °FFog.7 mph94%30.07 "Hg2 mi
9:20 AM54 °FFog.8 mph88%30.07 "Hg2 mi
8:50 AM54 °FFog.7 mph88%30.07 "Hg2 mi
8:20 AM54 °FFog.6 mph88%30.04 "Hg3 mi
7:50 AM54 °FFog.8 mph88%30.04 "Hg3 mi
7:20 AM54 °FPassing clouds.7 mph88%30.04 "Hg4 mi
6:50 AM54 °FPassing clouds.7 mph88%30.04 "Hg4 mi
6:20 AM54 °FPassing clouds.9 mph88%30.04 "Hg6 mi
5:50 AM54 °FPassing clouds.12 mph88%30.04 "Hg6 mi
5:20 AM54 °FPassing clouds.10 mph88%30.04 "HgN/A
4:50 AM54 °FPassing clouds.10 mph88%30.04 "HgN/A
4:20 AM54 °FPartly cloudy.10 mph88%30.04 "HgN/A
3:50 AM54 °FPartly cloudy.12 mph88%30.01 "HgN/A
3:20 AM52 °FPartly cloudy.12 mph94%30.01 "Hg6 mi
2:50 AM52 °FPassing clouds.12 mph94%30.01 "HgN/A
2:20 AM52 °FRain. Fog.12 mph94%30.04 "Hg3 mi
1:50 AM52 °FLight rain. Fog.13 mph94%30.04 "Hg2 mi
1:20 AM52 °FPassing clouds.13 mph94%30.04 "HgN/A
12:50 AM52 °FRain. Fog.13 mph94%30.04 "Hg2 mi
12:20 AM52 °FLight rain. Partly cloudy.13 mph94%30.04 "Hg6 mi
Weather by CustomWeather, © 2014

See weather overviewHow to use our weather pages